Miscellaneous Local Product
Issued by NWS North Platte, NE

Home | Current Version | Previous Version | Graphics & Text | Print | Product List | Glossary On
Versions: 1 2 3 4 5 6 7 8 9 10 11 12 13 14 15 16 17 18 19 20 21 22 23 24 25 26 27 28 29 30 31 32 33 34 35 36 37 38 39 40 41 42 43 44 45 46 47 48 49 50
000
AXUS43 KLBF 192010
MISLBF


WESTERN AND NORTH CENTRAL NEBRASKA HOURLY WEATHER ROUNDUP
NATIONAL WEATHER SERVICE NORTH PLATTE NE
200 PM CST FRI DEC 19 2014

***STATIONS NOT REPORTING VARIABLES SUCH AS SKY/WEATHER OR
PRESSURE ARE PROVIDED BY THE NEBRASKA DEPARTMENT OF
ROADS...RAWS...AND APRS NETWORKS...AND ARE NOT UNDER
NATIONAL WEATHER SERVICE QUALITY CONTROL***

...OBSERVATIONS IN AND NEAR THE EASTERN PANHANDLE OF NEBRASKA...

CITY           SKY/WX    TMP DP  RH WIND       PRES   REMARKS
PINE RIDGE     SUNNY     41  22  46 W9        29.96F
CHADRON        SUNNY     40  22  48 W8        29.97F WCI  34
ALLIANCE       SUNNY     35  25  66 W12       29.96F WCI  27
SIDNEY         SUNNY     40  26  57 W15       30.00F WCI  32
WHITECLAY        N/A     39  20  47 W5          N/A
CRESCENT LAKE    N/A     38  24  56 W13         N/A  WCI  30
LISCO            N/A     32  20  61 W6          N/A  WCI  27
BIG SPRINGS      N/A     34  29  80 SW12        N/A  WCI  25
$$

...OBSERVATIONS IN NORTH CENTRAL NEBRASKA...

CITY           SKY/WX    TMP DP  RH WIND       PRES   REMARKS
VALENTINE      SUNNY     36  25  64 SW5       29.95F WCI  32
THEDFORD       SUNNY     42  28  58 SW8       29.98F
AINSWORTH      SUNNY     33  26  75 SW8       29.97F WCI  25
O`NEILL        CLOUDY    28  28 100 S7        30.02F FOG     WCI  21
BROKEN BOW     SUNNY     34  28  79 S8        30.01F WCI  27
BROWNLEE         N/A     37  26  63 S3          N/A
SPRINGVIEW       N/A     34  26  71 CALM        N/A
BREWSTER         N/A     35  27  70 SW5         N/A  WCI  31
ROSE             N/A     32  32 100 MISG        N/A
SARGENT          N/A     32  28  85 SE3         N/A
COMSTOCK         N/A     32  31  95 S7          N/A  WCI  26
CHAMBERS         N/A     32  26  79 CALM        N/A
$$

...OBSERVATIONS IN SOUTHWEST NEBRASKA AND FAR NORTHEAST COLORADO...

CITY           SKY/WX    TMP DP  RH WIND       PRES   REMARKS
WRAY           FAIR      40  32  72 SW3       30.05F
IMPERIAL       SUNNY     39  27  62 SW9       30.04F WCI  33
OGALLALA       SUNNY     34  27  75 W10       30.02F WCI  26
NORTH PLATTE   SUNNY     37  26  64 W9        30.02F WCI  30
MCCOOK         SUNNY     44  33  65 SW6       30.04F
LEXINGTON      SUNNY     33  28  83 SW6       30.05F WCI  27
PAXTON           N/A     35  28  76 SW5         N/A  WCI  31
BRADY            N/A     37  29  73 CALM        N/A
GOTHENBURG       N/A     40  29  64 W3          N/A
CALLAWAY         N/A     33  30  90 SW6         N/A  WCI  27
$$

...NORTH PLATTE AREA...

CITY           SKY/WX    TMP DP  RH WIND       PRES   REMARKS
AIRPORT        SUNNY     37  26  64 W9        30.02F WCI  30
$$

...SOME WEATHER OBSERVATIONS FROM AROUND THE REGION...

CITY           SKY/WX    TMP DP  RH WIND       PRES   REMARKS
DENVER         MOSUNNY   45  11  25 S6        30.01F
LARAMIE        SUNNY     31  15  52 W22G29    29.99F WCI  18
CHEYENNE       SUNNY     40  14  34 W23G30    29.99F WCI  30
SCOTTSBLUFF    SUNNY     33  25  72 NW6       29.99F WCI  28
RAPID CITY     PTSUNNY   49  21  33 NE7       29.93F
PIERRE         CLOUDY    28  24  85 SE5       29.96F WCI  23
WINNER         FAIR      35  25  66 SW3       29.97F
SIOUX FALLS    CLOUDY    30  27  88 S16       30.09F WCI  19
OMAHA          CLOUDY    34  28  79 S13       30.19F HAZE    WCI  25
GRAND ISLAND   CLOUDY    33  29  85 SW14      30.09F WCI  23
KANSAS CITY    CLOUDY    31  30  96 SW5       30.22F FOG     WCI  26
WICHITA        CLOUDY    35  31  85 S3        30.19F
HAYS           SUNNY     45  30  57 SW14      30.10F
LIBERAL        CLOUDY    39  34  81 SW7       30.13F WCI  34
GOODLAND       SUNNY     48  24  39 W9        30.06F
$$



USA.gov is the U.S. government's official web portal to all federal, state and local government web resources and services.